TimeEST,TemperatureF,Dew PointF,Humidity,Sea Level PressureIn,VisibilityMPH,Wind Direction,Wind SpeedMPH,Gust SpeedMPH,PrecipitationIn,Events,Conditions,WindDirDegrees,DateUTC
12:00 AM,30.9,21.0,67,30.05,-9999.0,West,9.2,-,N/A,,Clear,260,2013-01-05 05:00:00
1:00 AM,30.0,19.9,66,30.06,-9999.0,West,6.9,-,N/A,,Clear,270,2013-01-05 06:00:00
2:00 AM,28.0,19.9,72,30.08,-9999.0,West,8.1,-,N/A,,Clear,270,2013-01-05 07:00:00
3:00 AM,24.1,19.0,81,30.10,-9999.0,Calm,Calm,-,N/A,,Clear,0,2013-01-05 08:00:00
4:00 AM,26.1,19.9,78,30.13,-9999.0,WNW,5.8,-,N/A,,Clear,290,2013-01-05 09:00:00
5:00 AM,28.4,19.4,69,30.17,-9999.0,WNW,8.1,-,N/A,,Clear,300,2013-01-05 10:00:00
6:00 AM,27.0,19.0,72,30.20,-9999.0,West,5.8,-,N/A,,Clear,270,2013-01-05 11:00:00
7:00 AM,28.0,19.0,69,30.23,-9999.0,West,8.1,-,N/A,,Clear,260,2013-01-05 12:00:00
8:00 AM,28.9,19.0,67,30.26,-9999.0,West,6.9,-,N/A,,Clear,270,2013-01-05 13:00:00
9:00 AM,33.1,19.9,59,30.28,-9999.0,West,12.7,-,N/A,,Clear,280,2013-01-05 14:00:00
10:00 AM,36.0,19.9,52,30.30,-9999.0,WNW,15.0,-,N/A,,Clear,290,2013-01-05 15:00:00
11:00 AM,37.9,19.9,48,30.32,-9999.0,West,16.1,23.0,N/A,,Clear,280,2013-01-05 16:00:00
12:00 PM,39.0,21.0,49,30.28,-9999.0,WNW,9.2,21.9,N/A,,Clear,300,2013-01-05 17:00:00
1:00 PM,41.0,21.0,45,30.26,-9999.0,WNW,13.8,-,N/A,,Clear,290,2013-01-05 18:00:00
2:00 PM,42.1,21.0,43,30.24,-9999.0,NW,8.1,-,N/A,,Clear,320,2013-01-05 19:00:00
3:00 PM,41.0,21.0,45,30.26,-9999.0,West,10.4,-,N/A,,Clear,260,2013-01-05 20:00:00
4:00 PM,39.0,21.0,49,30.26,-9999.0,Calm,Calm,-,N/A,,Clear,0,2013-01-05 21:00:00
5:00 PM,34.0,21.9,61,30.27,-9999.0,Calm,Calm,-,N/A,,Clear,0,2013-01-05 22:00:00
6:00 PM,28.9,21.0,72,30.28,-9999.0,Calm,Calm,-,N/A,,Clear,0,2013-01-05 23:00:00
7:00 PM,27.0,21.0,78,30.29,-9999.0,Calm,Calm,-,N/A,,Clear,0,2013-01-06 00:00:00
8:00 PM,28.0,21.0,75,30.26,-9999.0,Calm,Calm,-,N/A,,Clear,0,2013-01-06 01:00:00
9:00 PM,27.0,21.0,78,30.26,-9999.0,West,4.6,-,N/A,,Clear,260,2013-01-06 02:00:00
10:00 PM,28.0,23.0,81,30.24,-9999.0,Calm,Calm,-,N/A,,Clear,0,2013-01-06 03:00:00
11:00 PM,28.9,23.0,78,30.24,-9999.0,Calm,Calm,-,N/A,,Clear,0,2013-01-06 04:00:00